Regional Weather Roundup
Issued by NWS

Home | Current Version | Previous Version | Text Only | Print | Product List | Glossary On
Versions: 1 2 3 4 5 6 7 8 9 10 11 12 13 14 15 16 17 18 19 20 21 22 23 24 25 26 27 28 29 30 31 32 33 34 35 36 37 38 39 40 41 42 43 44 45 46 47 48 49 50
000
ASUS43 KBIS 271020
RWRND

NORTH DAKOTA REGIONAL WEATHER ROUNDUP
NATIONAL WEATHER SERVICE BISMARCK ND
500 AM CDT FRI MAR 27 2015

NOTE: "FAIR" INDICATES FEW OR NO CLOUDS BELOW 12,000 FEET WITH NO
SIGNIFICANT WEATHER AND/OR OBSTRUCTIONS TO VISIBILITY.


NDZ001>003-009>011-017-271100-
NORTHWEST NORTH DAKOTA

CITY           SKY/WX    TMP DP  RH WIND       PRES   REMARKS
WILLISTON      CLOUDY    37  29  72 S9        30.01F
MINOT          CLOUDY    30  17  58 SE9       30.11F
MINOT AFB      CLOUDY    30  22  72 S14       30.10F WCI  19
$$

NDZ018>021-031>035-040>046-271100-
SOUTHWEST NORTH DAKOTA

CITY           SKY/WX    TMP DP  RH WIND       PRES   REMARKS
BISMARCK       CLOUDY    26  16  65 SE13      30.20S WCI  15
DICKINSON      CLOUDY    33  29  85 S14       30.03F
GARRISON         N/A     29  19  66 S10       30.12F WCI  20
HETTINGER ARPT CLOUDY    32  29  88 SE10      30.09F
$$

NDZ004>008-012>016-024-026-027-054-271100-
NORTHEAST NORTH DAKOTA

CITY           SKY/WX    TMP DP  RH WIND       PRES   REMARKS
GRAND FORKS    PTCLDY    13  10  88 CALM      30.28F
GRND FRKS AFB  PTCLDY    13  10  86 SW2       30.27F
DEVILS LAKE    CLOUDY    21  14  73 S9        30.20F WCI  11
$$

NDZ022-023-025-028>030-036>039-047>053-271100-
SOUTHEAST NORTH DAKOTA

CITY           SKY/WX    TMP DP  RH WIND       PRES   REMARKS
FARGO          CLEAR     10   6  84 CALM      30.28F
JAMESTOWN      PTCLDY    19  14  81 S6        30.23S WCI  11
$$




USA.gov is the U.S. government's official web portal to all federal, state and local government web resources and services.